STARLINK-35004, 65428

Orbit data source: Space-Track

STARLINK-35004, 65428 is a payload satellite owned by SpaceX/Seattle (US) in LEO that was launched on Sun, 31 Aug 2025 UTC via an FALCON 9 launch vehicle from the Air Force Eastern Test Range (AFETR). Payload-class satellites include a variety of spacecraft equipped with specific instruments for various scientific and technological missions. These include communications satellites like Starlink; space stations such as the ISS; scientific satellites like the Hubble; Earth observation satellites from companies like Planet Labs, Umbra, and HawkEye 360; GPS; miniature CubeSats for education and research; and military/defense satellites.

Loading next visibility...
Identifier
65428, 2025-192AA
Orbit
LEO
Country
Flag of USUS
Related business
Manufacturer
SpaceX/Seattle
Mission
Operational Commercial Communications
Bus & Motor
STARLINK V2MO, Unknown motor
Mass
575 kg wet, ~530 kg dry
Launch date (UTC)
2025-08-31 (10 months ago)
Launch vehicle
FALCON 9
Launch site
Air Force Eastern Test Range (AFETR)
Object type
Payload
Rocket body
Debris
Shape & HBR
Box + 2 Pan, 17.7 m
Radar Cross Section
36.964 m², Large (>1 m²)

Expand to show TLE details & history
Last TLE update: 2 days ago

TLE from 2 days ago
0 STARLINK-35004
1 65428U 25192AA  26170.27206114  .00009916  00000-0  34647-3 0  9995
2 65428  53.1603 120.7349 0001500  83.3334 276.7838 15.30201898 44939
Epoch: 2026-06-19T06:31Z
TLE epoch observation values (Epoch: 2026-06-19T06:31:46.082Z)
Latitude
0.00002°
Longitude
115.28949°
Altitude
475.988 km
Speed
7.629 km/s
True Right ascension
08h 02m 56s
True Declination
0° 00' 00"
Sunlit
Object was in daylight at epoch
Visualization orbit readout
Latitude
Unknown
Longitude
Unknown
Altitude
Unknown
Speed
Unknown
Apparent Right ascension
Unknown
Apparent Declination
Unknown
Sunlit
N/A
Visualization observer readout
Local Sidereal Time
07:15:07
Azimuth
Unknown
Elevation
Unknown
Doppler factor
Unknown
Orbital elements
Apogee altitude
476.494 km
Perigee altitude
474.438 km
Semi-major axis
6,853.603 km
Eccentricity
0.00015
Inclination
53.1603°
RAAN
120.7349°
Arg. of periapsis
83.3334°
True anomaly
276.76673°
Mean anomaly
276.7838°
Eccentric anomaly
276.77527°
Mean motion
3.82529 °/min
Orbital period
94.11 mins
BSTAR
0.00034647
Loading maneuver chart data...
Computing Atmospheric mass density...
Loading historical data...
Loading historical data...
Loading historical data...
Loading historical data...
Loading historical data...
Loading historical data...
Loading historical data...

Documentation

Showing up to 5 results
|